Volver al catálogo

DMSP 5D-2 F13 DEB

ActivoSSO
NORAD 42281·DEBRIS·🇺🇸 United States

Lanzado Mar 24, 1995 desde Vandenberg Space Force Base

Loading…

Próximos Pases (próximas 24 horas)

TLE

ActualizadoSource: Space-Track

Época: Sep 14, 2026, 10:25 UTC

1 42281U 95015GX  26257.43404345  .00006543  00000-0  12336-2 0  9991
2 42281  98.5380 328.5334 0027288 123.9263 236.4538 14.64624403596862

Sigue DMSP 5D-2 F13 DEB en tiempo real con AllMySat

Download on the App Store